OVERFALLS Weather Reports


time (UTC)temp
C
wind
direction
speed
KPH
gust
KPH
rain 1hr
cm
rain 24hr
cm
rain mn
cm
humidity
%
barometer
mb
20260505034542 16 195 11.3 22.5 0.00 0.00 0.00 73 1012.6
20260505033043 16 175 11.3 19.3 0.00 0.00 0.00 73 1012.4
20260505031554 16 217 9.7 25.7 0.00 0.00 0.00 73 1012.2
20260505030046 16 205 11.3 29.0 0.00 0.00 0.00 72 1012.3
20260505024548 16 235 11.3 17.7 0.00 0.00 0.00 72 1012.4
20260505023046 17 190 8.0 16.1 0.00 0.00 0.00 72 1012.4
20260505021541 17 167 8.0 20.9 0.00 0.00 0.00 71 1012.4
20260505020041 17 175 11.3 22.5 0.00 0.00 0.00 71 1012.6
20260505014600 17 207 11.3 25.7 0.00 0.00 0.00 70 1012.5
20260505013044 17 169 9.7 19.3 0.00 0.00 0.00 69 1012.5
20260505011548 17 171 6.4 22.5 0.00 0.00 0.00 68 1012.4
20260505010045 17 194 9.7 14.5 0.00 0.00 0.00 67 1012.4
20260505004542 17 188 9.7 20.9 0.00 0.00 0.00 66 1012.4
20260505003046 17 165 6.4 14.5 0.00 0.00 0.00 66 1012.4
20260505001546 18 194 8.0 17.7 0.00 0.00 0.00 65 1012.4
20260505000049 18 188 8.0 19.3 0.00 0.00 0.00 62 1012.2
20260504234542 19 204 8.0 24.1 0.00 0.00 0.00 60 1012.0
20260504233047 19 195 11.3 24.1 0.00 0.00 0.00 59 1011.9
20260504231542 20 196 12.9 27.4 0.00 0.00 0.00 56 1011.7
20260504230050 20 360 16.1 35.4 0.00 0.00 0.00 53 1011.8
20260504224547 20 360 16.1 33.8 0.00 0.00 0.00 51 1011.7
20260504223040 22 360 11.3 30.6 0.00 0.00 0.00 36 1011.8
20260504221543 22 360 12.9 29.0 0.00 0.00 0.00 35 1011.6
20260504220049 23 360 12.9 22.5 0.00 0.00 0.00 33 1011.7
20260504214553 23 360 14.5 25.7 0.00 0.00 0.00 31 1011.8
20260504213049 23 360 14.5 29.0 0.00 0.00 0.00 32 1011.7
20260504211542 23 360 16.1 32.2 0.00 0.00 0.00 32 1011.8
20260504210055 23 360 16.1 27.4 0.00 0.00 0.00 32 1011.8
20260504204557 23 360 11.3 30.6 0.00 0.00 0.00 33 1011.7
20260504203044 23 360 17.7 30.6 0.00 0.00 0.00 32 1011.8
20260504201540 23 360 12.9 27.4 0.00 0.00 0.00 32 1011.8
20260504200043 23 360 9.7 24.1 0.00 0.00 0.00 32 1011.9
20260504194542 23 360 11.3 24.1 0.00 0.00 0.00 32 1012.1
20260504193043 23 360 11.3 22.5 0.00 0.00 0.00 33 1012.3
20260504191542 23 251 11.3 27.4 0.00 0.00 0.00 32 1012.4
20260504190041 23 224 4.8 25.7 0.00 0.00 0.00 32 1012.6
20260504184543 23 251 8.0 19.3 0.00 0.00 0.00 32 1012.7
20260504183041 23 238 11.3 22.5 0.00 0.00 0.00 32 1012.8
20260504181541 23 245 12.9 19.3 0.00 0.00 0.00 31 1013.1
20260504180041 22 209 11.3 25.7 0.00 0.00 0.00 33 1013.0
20260504174541 22 212 12.9 32.2 0.00 0.00 0.00 32 1013.2
20260504173051 22 184 9.7 27.4 0.00 0.00 0.00 32 1013.3
20260504171545 22 261 12.9 30.6 0.00 0.00 0.00 33 1013.4
20260504081544 10 264 9.7 25.7 0.00 0.00 0.00 75 1016.7
20260504044546 9 243 6.4 12.9 0.00 0.00 0.00 58 1016.6
20260504043053 9 193 6.4 11.3 0.00 0.00 0.00 58 1016.6
20260504041549 9 190 4.8 12.9 0.00 0.00 0.00 58 1016.4
20260504040046 9 201 6.4 11.3 0.00 0.00 0.00 57 1016.2